Regional Weather Roundup
Issued by NWS Portland, ME

Home | Current Version | Previous Version | Text Only | Print | Product List | Glossary On
Versions: 1 2 3 4 5 6 7 8 9 10 11 12 13 14 15 16 17 18 19 20 21 22 23 24 25 26 27 28 29 30 31 32 33 34 35 36 37 38 39 40 41 42 43 44 45 46 47 48 49 50
000
ASUS41 KGYX 210510
RWRGYX
WEATHER ROUNDUP FOR MAINE AND NEW HAMPSHIRE
NATIONAL WEATHER SERVICE GRAY ME
100 AM EDT MON APR 21 2014

MEZ002-005-006-010-012-015-018-020-021-024-026-027-029-210600-
MAINE

CITY           SKY/WX    TMP DP  RH WIND       PRES   REMARKS
PORTLAND       CLEAR     36  31  82 S3        30.31F
SANFORD        CLEAR     28 -18  12 CALM      30.29F
BAR HARBOR     MOCLDY    39  36  87 SW7       30.31F
WISCASSET      PTCLDY    32  29  88 CALM      30.32F
ROCKLAND       PTCLDY    37  34  87 SW5       30.32F
FRYEBURG       PTCLDY    39  22  50 S6        30.27F
LEWISTONAUBURN CLEAR     34  25  69 S3        30.28F
AUGUSTA        MOCLDY    35  31  85 S7        30.29F
WATERVILLE     MOCLDY    37  30  75 S6        30.24F
BANGOR         MOCLDY    38  26  62 S7        30.28F
GREENVILLE       N/A     35  25  66 SE6       30.17F
MILLINOCKET    CLOUDY    41  25  53 S5        30.23F
HOULTON        CLOUDY    40  25  55 SW7       30.20F
PRESQUE ISLE   CLOUDY    43  16  33 S3        30.18F
FRENCHVILLE    CLOUDY    38  13  35 S6        30.13F
CARIBOU        CLOUDY    39  19  44 CALM      30.16F
$$

NHZ002-005-008-009-011-012-014-210600-
NEW HAMPSHIRE

CITY           SKY/WX    TMP DP  RH WIND       PRES   REMARKS
PORTSMOUTH     CLEAR     35  32  89 SE3       30.31F
ROCHESTER      CLEAR     34  24  67 CALM      30.30F
NASHUA         CLEAR     37  29  73 CALM      30.32F
MANCHESTER     CLEAR     39  27  62 S3        30.29F
CONCORD        CLEAR     37  23  56 CALM      30.29F
LACONIA        CLEAR     41  21  45 W3        30.28F
PLYMOUTH         N/A     34  29  82 CALM      30.27F
BERLIN         PTCLDY    35  27  72 CALM      30.21F
WHITEFIELD     CLEAR     31  24  75 CALM      30.21F
JAFFREY        CLEAR     40  26  57 SW5       30.29F
LEBANON        CLEAR     37  24  59 NE7       30.24F
MT WASHINGTON  MOCLDY    32  21  64 W26         N/A  WCI  18
$$

VTZ005-007-008-210600-
VERMONT

CITY           SKY/WX    TMP DP  RH WIND       PRES   REMARKS
ST JOHNSBURY     N/A     36  24  62 MISG      30.20F
MONTPELIER     CLEAR     44  18  35 CALM      30.24F
BURLINGTON     MOCLDY    54  21  27 S10G17    30.17F
$$

MAZ007-012-024-CTZ003-RIZ002-NYZ038-NYZ072-210600-
SOUTHERN NEW ENGLAND AND NY

CITY           SKY/WX    TMP DP  RH WIND       PRES   REMARKS
BOSTON         PTCLDY    40  33  76 SW6       30.33F
WORCESTER      CLEAR     37  26  64 W8        30.29F
NANTUCKET      CLEAR     35  32  88 NE5       30.33F
PROVIDENCE     CLEAR     38  31  76 CALM      30.33F
HARTFORD       PTCLDY    42  25  50 S3        30.31F
ALBANY         CLEAR     48  23  37 S12       30.26F
NEW YORK CITY  PTCLDY    44  27  51 CALM      30.31F
$$

ANZ081-ANZ082-ANZ150-NHZ014-MEZ023>029-210600-
COASTAL MARINE OBSERVATIONS

STATION/POSITION TIME  TEMP    WIND        PRES    WAVE
                       AIR SEA DIR/SP/G            HT/PER
                 (UTC) (F)     (DEG/KT/KT) (MB)    (FT/S)
MOUNT DESERT ROC 0500   40                 1026.5F
MATINICUS ROCK   0400   39     210/ 12/ 12 1027.7F
PORTLAND WX BUOY 0500   41 42  210/ 14/ 16 1026.3F   2/ 4
WELLS            0500   35 42  270/  3/  3 1025.9F
ISLE OF SHOALS   0400   41     200/ 13/ 14 1026.8F
JEFFREYS LEDGE   0500      41                N/A     3/ 9
CASHES LEDGE BUO 0500      41  190/ 12/ 14 1027.0F   2/ 3
$$

.............KEY..............
   WCI - WIND CHILL
   TC  - TEMPERATURE IN CELSIUS
   VSB - VISIBILITY IN MILES
   HX  - HEAT INDEX
   FAIR- INDICATES FEW OR NO CLOUDS BELOW 12,000 FT, WITH NO
         SIGNIFICANT WEATHER AND/OR OBSTRUCTIONS TO VISIBILITY.





USA.gov is the U.S. government's official web portal to all federal, state and local government web resources and services.